Timestamp,Temp,Chill,HIndex,Humid,Dewpt,Wind,HiWind,WindDir,Rain,RainRate,Barom,Solar,ET,UV,InsideTemp,InsideHumid
2016-07-25 00:00:00,61.9,61.9,61.9,82,56.3405976587621,3,10,180,0,0,29.713,0,0.001,0,67.4,66
2016-07-25 00:05:00,61.8,61.8,61.8,82,56.2430116096766,3,10,180,0,0,29.712,0,0,0,67.2,67
2016-07-25 00:10:00,61.7,61.7,61.7,82,56.1454250427786,4,13,202.5,0,0,29.715,0,0,0,67,67
2016-07-25 00:15:00,61.7,61.7,61.7,82,56.1454250427786,3,13,202.5,0,0,29.713,0,0,0,67,67
2016-07-25 00:20:00,61.6,61.6,61.6,82,56.0478379580641,3,8,202.5,0,0,29.714,0,0,0,67,67
2016-07-25 00:25:00,61.5,61.5,61.5,82,55.950250355529,3,9,202.5,0,0,29.714,0,0,0,67,67
2016-07-25 00:30:00,61.5,61.5,61.5,83,56.285363533185,2,9,225,0,0,29.712,0,0,0,66.9,67
2016-07-25 00:35:00,61.5,61.5,61.5,83,56.285363533185,1,6,225,0,0,29.709,0,0,0,66.9,67
2016-07-25 00:40:00,61.4,61.4,61.4,83,56.1876306101954,3,8,247.5,0,0,29.71,0,0,0,66.9,67
2016-07-25 00:45:00,61.4,61.4,61.4,83,56.1876306101954,4,9,270,0,0,29.71,0,0,0,66.9,67
2016-07-25 00:50:00,61.3,61.3,61.3,83,56.0898971999234,2,7,292.5,0,0,29.713,0,0,0,66.9,67
2016-07-25 00:55:00,61.3,61.3,61.3,83,56.0898971999234,2,5,247.5,0,0,29.717,0,0,0,66.9,67
2016-07-25 01:00:00,61.2,61.2,61.2,83,55.9921633023654,3,8,247.5,0,0,29.718,0,0.001,0,66.7,68
2016-07-25 01:05:00,61.2,61.2,61.2,83,55.9921633023654,3,10,247.5,0,0,29.714,0,0,0,66.9,68
2016-07-25 01:10:00,61.1,61.1,61.1,83,55.8944289175177,2,7,247.5,0,0,29.717,0,0,0,66.7,68
2016-07-25 01:15:00,61.1,61.1,61.1,84,56.2254438867031,3,7,247.5,0,0,29.717,0,0,0,66.7,68
2016-07-25 01:20:00,61.1,61.1,61.1,84,56.2254438867031,1,6,202.5,0,0,29.719,0,0,0,66.7,68
2016-07-25 01:25:00,61,61,61,84,56.1275657506492,1,8,202.5,0,0,29.72,0,0,0,66.7,68
2016-07-25 01:30:00,60.9,60.9,60.9,84,56.0296871576161,1,6,292.5,0,0,29.72,0,0,0,66.7,67
2016-07-25 01:35:00,60.9,60.9,60.9,84,56.0296871576161,1,4,270,0,0,29.718,0,0,0,66.6,68
2016-07-25 01:40:00,60.8,60.8,60.8,84,55.9318081076007,1,5,247.5,0,0,29.721,0,0,0,66.6,67
2016-07-25 01:45:00,60.7,60.7,60.7,84,55.8339286005996,2,7,202.5,0,0,29.72,0,0,0,66.4,67
2016-07-25 01:50:00,60.6,60.6,60.6,84,55.7360486366098,3,9,225,0,0,29.72,0,0,0,66.4,67
2016-07-25 01:55:00,60.5,60.5,60.5,84,55.638168215628,0,4,0,0,0,29.724,0,0,0,66.2,67
2016-07-25 02:00:00,60.5,60.5,60.5,84,55.638168215628,3,9,225,0,0,29.724,0,0.001,0,66.2,67
2016-07-25 02:05:00,60.5,60.5,60.5,83,55.3080123751436,2,6,225,0,0,29.724,0,0,0,66.2,67
2016-07-25 02:10:00,60.4,60.4,60.4,83,55.210274579166,1,9,225,0,0,29.725,0,0,0,66.2,66
2016-07-25 02:15:00,60.5,60.5,60.5,83,55.3080123751436,2,6,202.5,0,0,29.728,0,0,0,66.2,66
2016-07-25 02:20:00,60.5,60.5,60.5,83,55.3080123751436,2,8,270,0,0,29.728,0,0,0,66.2,66
2016-07-25 02:25:00,60.5,60.5,60.5,83,55.3080123751436,3,10,247.5,0,0,29.728,0,0,0,66.1,66
2016-07-25 02:30:00,60.4,60.4,60.4,83,55.210274579166,2,7,225,0,0,29.73,0,0,0,66.1,66
2016-07-25 02:35:00,60.4,60.4,60.4,83,55.210274579166,3,9,225,0,0,29.731,0,0,0,66.1,66
2016-07-25 02:40:00,60.4,60.4,60.4,82,54.8767525502999,2,9,225,0,0,29.73,0,0,0,66.1,66
2016-07-25 02:45:00,60.3,60.3,60.3,82,54.7791587335954,2,7,202.5,0,0,29.727,0,0,0,65.9,66
2016-07-25 02:50:00,60.3,60.3,60.3,82,54.7791587335954,1,6,202.5,0,0,29.729,0,0,0,65.8,66
2016-07-25 02:55:00,60.2,60.2,60.2,82,54.6815643990166,1,5,202.5,0,0,29.728,0,0,0,65.8,66
2016-07-25 03:00:00,60.1,60.1,60.1,82,54.5839695465594,1,5,225,0,0,29.729,0,0.001,0,65.6,66
2016-07-25 03:05:00,60.1,60.1,60.1,82,54.5839695465594,2,7,202.5,0,0,29.734,0,0,0,65.6,66
2016-07-25 03:10:00,60,60,60,82,54.4863741762197,2,6,202.5,0,0,29.735,0,0,0,65.6,67
2016-07-25 03:15:00,59.9,59.9,59.9,82,54.3887782879935,1,7,202.5,0,0,29.733,0,0,0,65.4,67
2016-07-25 03:20:00,59.9,59.9,59.9,83,54.7215782894223,3,7,202.5,0,0,29.73,0,0,0,65.4,67
2016-07-25 03:25:00,59.8,59.8,59.8,83,54.6238375694769,1,6,180,0,0,29.731,0,0,0,65.3,67
2016-07-25 03:30:00,59.7,59.7,59.7,83,54.5260963621908,1,5,202.5,0,0,29.731,0,0,0,65.3,67
2016-07-25 03:35:00,59.6,59.6,59.6,83,54.4283546675604,1,5,180,0,0,29.729,0,0,0,65.3,67
2016-07-25 03:40:00,59.5,59.5,59.5,83,54.3306124855819,2,7,247.5,0,0,29.73,0,0,0,65.1,67
2016-07-25 03:45:00,59.3,59.3,59.3,83,54.1351266595664,1,8,292.5,0,0,29.734,0,0,0,65.1,67
2016-07-25 03:50:00,59.1,59.1,59.1,83,53.9396388841151,1,7,247.5,0,0,29.734,0,0,0,64.9,66
2016-07-25 03:55:00,59,59,59,83,53.841894265342,1,6,202.5,0,0,29.735,0,0,0,64.9,66
2016-07-25 04:00:00,59,59,59,83,53.841894265342,0,3,0,0,0,29.739,0,0,0,64.8,66
2016-07-25 04:05:00,59,59,59,83,53.841894265342,0,2,0,0,0,29.739,0,0,0,64.8,66
2016-07-25 04:10:00,58.9,58.9,58.9,83,53.7441491591989,1,6,225,0,0,29.737,0,0,0,64.6,66
2016-07-25 04:15:00,58.7,58.7,58.7,83,53.5486574847887,1,7,225,0,0,29.739,0,0,0,64.6,66
2016-07-25 04:20:00,58.6,58.6,58.6,83,53.4509109165141,3,7,337.5,0,0,29.738,5,0,0,64.6,66
2016-07-25 04:25:00,58.4,58.4,58.4,83,53.2554163178081,0,2,0,0,0,29.739,8,0,0,64.6,65
2016-07-25 04:30:00,58.3,58.3,58.3,83,53.1576682873692,1,6,247.5,0,0,29.74,10,0,0,64.6,65
2016-07-25 04:35:00,58.2,58.2,58.2,83,53.059919769535,2,6,247.5,0,0,29.742,12,0,0,64.6,65
2016-07-25 04:40:00,58.1,58.1,58.1,83,52.9621707643017,1,4,247.5,0,0,29.743,14,0,0,64.6,65
2016-07-25 04:45:00,58,58,58,83,52.8644212716658,1,6,225,0,0,29.746,15,0,0,64.5,65
2016-07-25 04:50:00,58,58,58,83,52.8644212716658,1,5,225,0,0,29.745,18,0,0,64.3,65
2016-07-25 04:55:00,57.9,57.9,57.9,83,52.7666712916235,1,7,225,0,0,29.748,19,0,0,64.5,65
2016-07-25 05:00:00,57.9,57.9,57.9,83,52.7666712916235,2,8,225,0,0,29.748,19,0,0,64.5,65
2016-07-25 05:05:00,57.8,57.8,57.8,83,52.6689208241713,1,6,247.5,0,0,29.748,20,0,0,64.3,65
2016-07-25 05:10:00,57.8,57.8,57.8,83,52.6689208241713,3,6,225,0,0,29.748,23,0,0,64.3,65
2016-07-25 05:15:00,57.8,57.8,57.8,83,52.6689208241713,2,6,247.5,0,0,29.748,26,0,0,64.3,65
2016-07-25 05:20:00,57.8,57.8,57.8,83,52.6689208241713,2,7,247.5,0,0,29.747,30,0,0,64.3,65
2016-07-25 05:25:00,57.9,57.9,57.9,83,52.7666712916235,2,6,225,0,0,29.749,54,0,0,64.3,65
2016-07-25 05:30:00,58,58,58,83,52.8644212716658,2,7,225,0,0,29.75,91,0,0,64.3,65
2016-07-25 05:35:00,58.1,58.1,58.1,83,52.9621707643017,4,9,247.5,0,0,29.75,105,0,0,64.3,65
2016-07-25 05:40:00,58.3,58.3,58.3,82,52.8271736404305,3,10,225,0,0,29.748,119,0,0,64.3,64
2016-07-25 05:45:00,58.5,58.5,58.5,82,53.0223814724232,2,7,225,0,0,29.751,114,0,0,64.5,64
2016-07-25 05:50:00,58.7,58.7,58.7,82,53.2175872326222,2,7,292.5,0,0,29.753,132,0,0,64.5,64
2016-07-25 05:55:00,59,59,59,81,53.1753194989253,2,5,270,0,0,29.753,103,0,0,64.5,64
2016-07-25 06:00:00,59,59,59,80,52.8365931705396,5,13,270,0,0,29.751,126,0.002,0,64.5,63
2016-07-25 06:05:00,59,59,59,79,52.4941263384897,3,8,270,0,0,29.754,190,0,0,64.6,62
2016-07-25 06:10:00,59.2,59.2,59.2,79,52.6884448219811,3,8,247.5,0,0,29.757,127,0,0,64.6,62
2016-07-25 06:15:00,59.5,59.5,59.5,78,52.6328702332406,1,8,292.5,0,0,29.755,180,0,0,64.8,62
2016-07-25 06:20:00,59.8,59.8,59.8,77,52.5724525149147,1,6,202.5,0,0,29.76,92,0,0,64.9,62
2016-07-25 06:25:00,60.1,60.1,60.1,77,52.8630079318465,4,9,247.5,0,0,29.76,254,0,0,64.9,62
2016-07-25 06:30:00,60.4,60.4,60.4,76,52.7971678713632,4,9,247.5,0,0,29.759,212,0,0,65.1,62
2016-07-25 06:35:00,60.6,60.6,60.6,76,52.990556641839,1,6,225,0,0,29.758,157,0,0,65.3,62
2016-07-25 06:40:00,60.8,60.8,60.8,76,53.1839425872039,3,9,225,0,0,29.757,187,0,0,65.4,62
2016-07-25 06:45:00,61,61,61,75,53.0158597049381,4,11,225,0,0,29.762,258,0,0.1,65.9,61
2016-07-25 06:50:00,61.3,61.3,61.3,75,53.3054623338016,3,7,225,0,0,29.764,252,0,0,66.2,61
2016-07-25 06:55:00,61.5,61.5,61.5,75,53.4985270604222,5,10,202.5,0,0,29.767,154,0,0,66.2,61
2016-07-25 07:00:00,61.6,61.6,61.6,75,53.5950583159714,3,9,225,0,0,29.765,107,0.004,0,66.2,61
2016-07-25 07:05:00,61.6,61.6,61.6,74,53.2283892071545,4,12,225,0,0,29.768,79,0,0,66.2,61
2016-07-25 07:10:00,61.5,61.5,61.5,74,53.1320153724475,2,7,202.5,0,0,29.766,67,0,0,66.2,61
2016-07-25 07:15:00,61.4,61.4,61.4,75,53.4019950663685,5,11,202.5,0,0,29.763,101,0,0,66.1,61
2016-07-25 07:20:00,61.4,61.4,61.4,75,53.4019950663685,1,4,202.5,0,0,29.767,112,0,0,66.1,61
2016-07-25 07:25:00,61.3,61.3,61.3,75,53.3054623338016,4,10,247.5,0,0,29.767,160,0,0.3,66.2,62
2016-07-25 07:30:00,61.4,61.4,61.4,76,53.7640834732519,1,5,180,0,0,29.764,222,0,0.6,66.6,63
2016-07-25 07:35:00,61.6,61.6,61.6,76,53.957458118792,2,7,180,0,0,29.763,375,0,1,66.9,62
2016-07-25 07:40:00,61.9,61.9,61.9,76,54.2475147906189,3,11,292.5,0,0,29.76,280,0,1,67.4,62
2016-07-25 07:45:00,62.1,62.1,62.1,75,54.0777035164452,5,12,180,0,0,29.759,294,0,1.1,67.5,61
2016-07-25 07:50:00,62.5,62.5,62.5,74,54.095719022768,5,11,225,0,0,29.762,319,0,1.1,67.7,60
2016-07-25 07:55:00,62.7,62.7,62.7,73,53.9156495297343,6,12,225,0,0,29.767,206,0,1,67.9,58
2016-07-25 08:00:00,62.7,62.7,62.7,72,53.5383361080645,5,12,292.5,0,0,29.767,212,0.006,1.1,68,58
2016-07-25 08:05:00,62.8,62.8,62.8,72,53.6343797656217,5,14,202.5,0,0,29.763,353,0,1.5,68,57
2016-07-25 08:10:00,63.2,63.2,63.2,72,54.0185460268952,4,9,202.5,0,0,29.765,471,0,1.8,68.2,57
2016-07-25 08:15:00,63.6,63.6,63.6,70,53.6310967882452,4,10,225,0,0,29.766,652,0,2.1,68.4,57
2016-07-25 08:20:00,64,64,64,69,53.6201617003738,3,15,225,0,0,29.764,541,0,2.1,68.5,56
2016-07-25 08:25:00,64.2,64.2,64.2,67,53.0077589191136,7,15,247.5,0,0,29.766,449,0,2.1,68.5,55
2016-07-25 08:30:00,64.3,64.3,64.3,66,52.6931096379161,5,16,247.5,0,0,29.771,390,0,2.1,68.5,55
2016-07-25 08:35:00,64.3,64.3,64.3,66,52.6931096379161,5,16,202.5,0,0,29.77,493,0,2.4,68.7,54
2016-07-25 08:40:00,64.4,64.4,64.4,66,52.7881280206731,5,12,180,0,0,29.767,359,0,2,68.7,55
2016-07-25 08:45:00,64.5,64.5,64.5,65,52.4674585195491,4,16,225,0,0,29.767,304,0,1.5,68.7,54
2016-07-25 08:50:00,64.4,64.4,64.4,65,52.3726171142575,6,14,202.5,0,0,29.768,220,0,1.8,68.7,54
2016-07-25 08:55:00,64.6,64.6,64.6,66,52.9781616611879,5,12,225,0,0,29.768,634,0,3.2,68.9,54
2016-07-25 09:00:00,64.9,64.9,64.9,65,52.8468133715928,7,16,315,0,0,29.769,519,0.011,2.8,68.9,53
2016-07-25 09:05:00,65,65,65,64,52.5194135763771,5,14,225,0,0,29.768,365,0,2.7,69,53
2016-07-25 09:10:00,65.5,65.5,65.5,64,52.9926852838376,3,9,270,0,0,29.769,514,0,2.9,69.2,53
2016-07-25 09:15:00,66.4,66.4,66.4,62,52.9772468553198,6,18,225,0,0,29.772,790,0,4.2,69.4,53
2016-07-25 09:20:00,66.6,66.6,66.6,61,52.722542767206,6,16,225,0,0,29.773,755,0,3.8,69.7,52
2016-07-25 09:25:00,66.6,66.6,66.6,60,52.272856480133,6,15,202.5,0,0,29.77,485,0,3.4,69.9,51
2016-07-25 09:30:00,66.8,66.8,66.8,61,52.9107172567941,5,12,247.5,0,0,29.766,631,0,3.6,70.2,51
2016-07-25 09:35:00,66.9,66.9,66.9,60,52.5545505801725,7,15,225,0,0,29.768,693,0,4.1,70.6,51
2016-07-25 09:40:00,67.4,67.4,67.4,59,52.566164427833,5,12,202.5,0,0,29.771,849,0,4.6,70.9,51
2016-07-25 09:45:00,67.4,67.4,67.4,58,52.1014434630704,6,16,202.5,0,0,29.771,332,0,2.5,71.1,49
2016-07-25 09:50:00,66.6,66.6,66.6,59,51.8165355890672,6,18,225,0,0,29.774,411,0,2.8,71.1,49
2016-07-25 09:55:00,66.6,66.6,66.6,58,51.3533662605485,7,18,202.5,0,0,29.773,466,0,3.3,71.2,48
2016-07-25 10:00:00,66,66,66,59,51.2542595496493,7,14,225,0,0,29.776,413,0.015,3.5,71.2,47
2016-07-25 10:05:00,65.4,65.4,65.4,60,51.1459668464113,8,19,225,0,0,29.774,489,0,3.7,71.1,48
2016-07-25 10:10:00,65.6,65.6,65.6,60,51.3337943679677,5,15,225,0,0,29.775,461,0,3.4,71.1,48
2016-07-25 10:15:00,65.6,65.6,65.6,60,51.3337943679677,7,14,202.5,0,0,29.776,460,0,3.3,71.1,48
2016-07-25 10:20:00,65.5,65.5,65.5,60,51.239881236366,6,15,225,0,0,29.777,403,0,3,71.2,47
2016-07-25 10:25:00,66.1,66.1,66.1,59,51.3479754618876,5,18,225,0,0,29.776,548,0,4.5,71.4,48
2016-07-25 10:30:00,66.2,66.2,66.2,58,50.9792956603416,5,13,202.5,0,0,29.779,332,0,2.4,71.4,47
2016-07-25 10:35:00,65.4,65.4,65.4,58,50.2310904529104,7,15,225,0,0,29.779,373,0,2.8,71.4,46
2016-07-25 10:40:00,65.3,65.3,65.3,58,50.1375588007675,5,14,225,0,0,29.78,368,0,2.7,71.2,46
2016-07-25 10:45:00,64.8,64.8,64.8,59,50.1295675333533,6,15,202.5,0,0,29.779,272,0,1.8,71.1,46
2016-07-25 10:50:00,64.8,64.8,64.8,62,51.4686653352644,5,11,270,0,0,29.782,231,0,1.4,70.7,48
2016-07-25 10:55:00,64.1,64.1,64.1,62,50.8085655514221,6,14,225,0,0,29.78,218,0,1.2,70.6,48
2016-07-25 11:00:00,64,64,64,63,51.1465185722333,5,13,225,0,0,29.783,331,0.011,2.3,70.2,49
2016-07-25 11:05:00,64.3,64.3,64.3,63,51.4299772640491,3,13,247.5,0,0,29.783,355,0,2.6,70.2,49
2016-07-25 11:10:00,64.3,64.3,64.3,61,50.5581850416857,7,18,202.5,0,0,29.785,270,0,1.8,70.4,48
2016-07-25 11:15:00,63.9,63.9,63.9,63,51.0520300444182,7,18,247.5,0,0,29.791,223,0,1.4,70.2,48
2016-07-25 11:20:00,63.9,63.9,63.9,62,50.6199549491545,5,11,225,0,0,29.793,192,0,1.2,70.2,48
2016-07-25 11:25:00,63.7,63.7,63.7,64,51.2887769742844,5,10,270,0,0,29.794,202,0,1.4,70.2,49
2016-07-25 11:30:00,63.5,63.5,63.5,63,50.6740644465504,6,13,202.5,0,0,29.796,193,0,1.2,70.4,48
2016-07-25 11:35:00,63.2,63.2,63.2,64,50.8154051349067,4,11,225,0,0,29.797,172,0,1.1,70.2,49
2016-07-25 11:40:00,63,63,63,65,51.0447243521901,5,12,202.5,0,0,29.799,156,0,0.9,69.7,49
2016-07-25 11:45:00,63,63,63,66,51.4577758621219,3,11,180,0,0,29.801,190,0,1.2,69.4,50
2016-07-25 11:50:00,63.1,63.1,63.1,66,51.5528077881748,5,11,225,0,0,29.801,162,0,1,69.4,51
2016-07-25 11:55:00,63,63,63,66,51.4577758621219,4,10,270,0,0,29.797,155,0,1,69.4,51
2016-07-25 12:00:00,62.9,62.9,62.9,66,51.362742894157,5,11,225,0,0,29.801,122,0.006,0.6,69.4,51
2016-07-25 12:05:00,62.9,62.9,62.9,66,51.362742894157,5,11,225,0,0,29.802,73,0,0,69.4,51
2016-07-25 12:10:00,62.6,62.6,62.6,66,51.0776377386195,7,20,225,0,0,29.801,64,0,0,69,51
2016-07-25 12:15:00,62.3,62.3,62.3,67,51.1988982680591,5,11,270,0,0,29.804,79,0,0,68.9,51
2016-07-25 12:20:00,62.2,62.2,62.2,68,51.5045923327497,3,13,202.5,0,0,29.805,117,0,0.3,68.7,52
2016-07-25 12:25:00,62.2,62.2,62.2,67,51.1036850062213,5,14,225,0,0,29.81,144,0,0.8,68.7,52
2016-07-25 12:30:00,62.3,62.3,62.3,68,51.5999764938697,3,11,202.5,0,0,29.807,131,0,0.6,68.4,52
2016-07-25 12:35:00,62.5,62.5,62.5,67,51.3893217705602,3,11,202.5,0,0,29.806,79,0,0,68.5,53
2016-07-25 12:40:00,62.4,62.4,62.4,68,51.6953596825685,3,10,225,0,0,29.806,62,0,0,68.4,53
2016-07-25 12:45:00,62.3,62.3,62.3,68,51.5999764938697,3,11,225,0,0,29.807,83,0,0,68.4,53
2016-07-25 12:50:00,62.3,62.3,62.3,68,51.5999764938697,4,11,202.5,0,0,29.807,117,0,0.3,68.4,53
2016-07-25 12:55:00,62.4,62.4,62.4,68,51.6953596825685,2,9,292.5,0,0,29.81,123,0,0.4,68.4,53
2016-07-25 13:00:00,62.8,62.8,62.8,68,52.0768827134485,2,8,202.5,0,0,29.805,239,0.004,1.8,68.7,53
2016-07-25 13:05:00,63.1,63.1,63.1,66,51.5528077881748,5,11,225,0,0,29.804,198,0,1.3,69,52
2016-07-25 13:10:00,62.9,62.9,62.9,66,51.362742894157,4,11,225,0,0,29.804,144,0,0.8,69,52
2016-07-25 13:15:00,62.8,62.8,62.8,66,51.2677088842631,4,12,270,0,0,29.807,153,0,0.9,69.2,51
2016-07-25 13:20:00,62.9,62.9,62.9,66,51.362742894157,5,11,247.5,0,0,29.805,168,0,1,69,51
2016-07-25 13:25:00,63,63,63,65,51.0447243521901,5,11,315,0,0,29.804,264,0,1.8,69,51
2016-07-25 13:30:00,63.6,63.6,63.6,64,51.194104831896,5,11,202.5,0,0,29.805,408,0,2.9,69.2,51
2016-07-25 13:35:00,64,64,64,64,51.5727867253019,5,11,247.5,0,0,29.805,393,0,2.8,69.6,50
2016-07-25 13:40:00,64.5,64.5,64.5,62,51.1857725369868,3,9,247.5,0,0,29.803,366,0,2.7,69.7,50
2016-07-25 13:45:00,63.9,63.9,63.9,64,51.4781179209677,5,11,247.5,0,0,29.799,369,0,2.8,69.9,50
2016-07-25 13:50:00,64.5,64.5,64.5,64,52.0461140576824,2,10,202.5,0,0,29.798,344,0,2.4,70.2,50
2016-07-25 13:55:00,64.4,64.4,64.4,64,51.9514508163796,5,11,292.5,0,0,29.799,222,0,1.3,70.4,50
2016-07-25 14:00:00,64,64,64,63,51.1465185722333,6,15,292.5,0,0,29.798,320,0.007,2.2,70.4,49
2016-07-25 14:05:00,64.8,64.8,64.8,62,51.4686653352644,3,9,180,0,0,29.799,381,0,2.7,70.6,49
2016-07-25 14:10:00,65.6,65.6,65.6,61,51.7815970533931,5,12,225,0,0,29.796,608,0,4.1,70.9,49
2016-07-25 14:15:00,66.9,66.9,66.9,60,52.5545505801725,3,10,202.5,0,0,29.793,587,0,3.9,71.2,49
2016-07-25 14:20:00,67.2,67.2,67.2,59,52.378764990403,5,20,180,0,0,29.793,740,0,4.6,71.4,48
2016-07-25 14:25:00,67.6,67.6,67.6,57,51.8162396054179,4,11,202.5,0,0,29.797,646,0,3.7,71.8,48
2016-07-25 14:30:00,67.3,67.3,67.3,58,52.0079384789022,4,11,202.5,0,0,29.796,549,0,3.5,71.9,48
2016-07-25 14:35:00,67,67,67,59,52.1913603716087,4,10,247.5,0,0,29.798,336,0,2.1,72.1,48
2016-07-25 14:40:00,65.9,65.9,65.9,60,51.6155262129078,5,14,247.5,0,0,29.797,292,0,1.7,71.9,47
2016-07-25 14:45:00,66,66,66,61,52.1579899928535,4,10,247.5,0,0,29.798,404,0,2.8,72.1,48
2016-07-25 14:50:00,65.6,65.6,65.6,61,51.7815970533931,5,14,225,0,0,29.794,261,0,1.8,71.9,48
2016-07-25 14:55:00,65.4,65.4,65.4,61,51.5933932561248,4,10,247.5,0,0,29.795,224,0,1.2,71.9,48
2016-07-25 15:00:00,65.3,65.3,65.3,61,51.4992895255229,6,12,202.5,0,0,29.793,391,0.012,2.3,71.6,48
2016-07-25 15:05:00,65.5,65.5,65.5,61,51.687495765407,5,11,225,0,0,29.794,237,0,1.3,71.6,48
2016-07-25 15:10:00,65.3,65.3,65.3,61,51.4992895255229,4,12,22.5,0,0,29.795,211,0,1.1,71.6,48
2016-07-25 15:15:00,65.3,65.3,65.3,60,51.0520511980782,4,12,247.5,0,0,29.795,232,0,1.2,71.6,47
2016-07-25 15:20:00,65,65,65,61,51.2169710055608,4,11,292.5,0,0,29.793,138,0,0.2,71.6,47
2016-07-25 15:25:00,65,65,65,61,51.2169710055608,3,9,225,0,0,29.793,175,0,0.6,71.4,47
2016-07-25 15:30:00,64.8,64.8,64.8,62,51.4686653352644,5,15,270,0,0,29.794,168,0,0.6,71.4,47
2016-07-25 15:35:00,64.7,64.7,64.7,62,51.3743689206411,2,8,247.5,0,0,29.793,131,0,0.1,71.4,48
2016-07-25 15:40:00,64.7,64.7,64.7,62,51.3743689206411,4,9,225,0,0,29.797,181,0,0.6,71.2,48
2016-07-25 15:45:00,64.8,64.8,64.8,61,51.0287525518847,6,11,225,0,0,29.799,330,0,1.6,71.1,47
2016-07-25 15:50:00,65,65,65,60,50.7702967025563,6,11,202.5,0,0,29.793,385,0,1.7,71.2,47
2016-07-25 15:55:00,64.9,64.9,64.9,61,51.1228623894421,5,13,225,0,0,29.794,232,0,1.3,71.4,47
2016-07-25 16:00:00,64.8,64.8,64.8,62,51.4686653352644,3,10,225,0,0,29.793,198,0.007,0.7,71.4,47
2016-07-25 16:05:00,64.9,64.9,64.9,62,51.5629605651149,3,14,180,0,0,29.794,219,0,0.8,71.2,48
2016-07-25 16:10:00,65,65,65,63,52.0913406798023,3,9,247.5,0,0,29.794,181,0,0.5,71.2,48
2016-07-25 16:15:00,64.8,64.8,64.8,62,51.4686653352644,5,13,292.5,0,0,29.795,188,0,0.5,71.2,48
2016-07-25 16:20:00,65,65,65,62,51.6572546102149,6,14,247.5,0,0,29.795,357,0,1.3,71.1,48
2016-07-25 16:25:00,65.2,65.2,65.2,62,51.845839146253,3,10,247.5,0,0,29.794,293,0,1.2,71.2,48
2016-07-25 16:30:00,65.5,65.5,65.5,61,51.687495765407,3,10,157.5,0,0,29.797,261,0,1,71.2,49
2016-07-25 16:35:00,65.3,65.3,65.3,61,51.4992895255229,5,11,202.5,0,0,29.797,323,0,1.1,71.2,48
2016-07-25 16:40:00,65.4,65.4,65.4,60,51.1459668464113,5,15,225,0,0,29.796,304,0,1,71.4,47
2016-07-25 16:45:00,65.4,65.4,65.4,60,51.1459668464113,5,13,315,0,0,29.799,226,0,0.7,71.4,47
2016-07-25 16:50:00,64.8,64.8,64.8,62,51.4686653352644,6,11,225,0,0,29.803,151,0,0.1,71.2,47
2016-07-25 16:55:00,64.4,64.4,64.4,63,51.5244611975144,3,12,225,0,0,29.803,201,0,0.1,71.1,48
2016-07-25 17:00:00,64.7,64.7,64.7,62,51.3743689206411,4,13,270,0,0,29.803,298,0.007,0.6,71.1,48
2016-07-25 17:05:00,65,65,65,62,51.6572546102149,4,9,270,0,0,29.802,325,0,0.8,71.1,48
2016-07-25 17:10:00,65.6,65.6,65.6,60,51.3337943679677,4,9,202.5,0,0,29.799,253,0,0.6,71.2,48
2016-07-25 17:15:00,65.2,65.2,65.2,59,50.5044856056007,5,14,202.5,0,0,29.801,237,0,0.4,71.1,47
2016-07-25 17:20:00,65,65,65,60,50.7702967025563,5,11,180,0,0,29.799,276,0,0.4,71.1,47
2016-07-25 17:25:00,64.7,64.7,64.7,60,50.4885308807191,5,16,225,0,0,29.804,203,0,0,70.9,46
2016-07-25 17:30:00,64.4,64.4,64.4,60,50.2067537318836,5,12,225,0,0,29.804,174,0,0,70.7,47
2016-07-25 17:35:00,64.2,64.2,64.2,62,50.9028690751511,5,11,202.5,0,0,29.806,170,0,0,70.7,47
2016-07-25 17:40:00,64.3,64.3,64.3,62,50.9971714139733,2,6,202.5,0,0,29.806,125,0,0,70.7,48
2016-07-25 17:45:00,64.1,64.1,64.1,62,50.8085655514221,4,13,202.5,0,0,29.805,98,0,0,70.7,48
2016-07-25 17:50:00,63.9,63.9,63.9,63,51.0520300444182,3,11,247.5,0,0,29.806,123,0,0,70.6,48
2016-07-25 17:55:00,64,64,64,63,51.1465185722333,3,9,247.5,0,0,29.807,167,0,0,70.4,48
2016-07-25 18:00:00,64.1,64.1,64.1,62,50.8085655514221,4,11,225,0,0,29.807,186,0.006,0,70.4,48
2016-07-25 18:05:00,64,64,64,61,50.2758298767805,2,10,247.5,0,0,29.808,151,0,0,70.4,47
2016-07-25 18:10:00,64,64,64,62,50.714260842764,2,9,247.5,0,0,29.811,127,0,0,70.4,48
2016-07-25 18:15:00,63.8,63.8,63.8,61,50.0875869919533,5,14,247.5,0,0,29.812,111,0,0,70.4,47
2016-07-25 18:20:00,63.4,63.4,63.4,62,50.1484077060535,4,11,225,0,0,29.814,97,0,0,70.2,47
2016-07-25 18:25:00,63.3,63.3,63.3,62,50.0540947022663,3,8,0,0,0,29.816,91,0,0,70.2,47
2016-07-25 18:30:00,63.2,63.2,63.2,63,50.3905781866253,3,11,270,0,0,29.813,81,0,0,70.1,48
2016-07-25 18:35:00,63,63,63,63,50.2015816027779,3,10,270,0,0,29.816,75,0,0,69.9,48
2016-07-25 18:40:00,63,63,63,64,50.6260486096758,3,12,270,0,0,29.816,83,0,0,69.7,48
2016-07-25 18:45:00,62.9,62.9,62.9,64,50.5313686778077,4,9,247.5,0,0,29.817,81,0,0,69.6,48
2016-07-25 18:50:00,62.7,62.7,62.7,64,50.3420054754678,4,10,247.5,0,0,29.819,72,0,0,69.6,48
2016-07-25 18:55:00,62.6,62.6,62.6,64,50.2473222049569,4,12,247.5,0,0,29.821,64,0,0,69.4,49
2016-07-25 19:00:00,62.4,62.4,62.4,65,50.4755628247496,4,9,270,0,0,29.821,56,0.003,0,69.2,49
2016-07-25 19:05:00,62.3,62.3,62.3,65,50.3806987996776,5,14,225,0,0,29.823,53,0,0,69,49
2016-07-25 19:10:00,62.2,62.2,62.2,66,50.6974829434297,4,9,292.5,0,0,29.823,48,0,0,68.9,50
2016-07-25 19:15:00,62.1,62.1,62.1,66,50.6024416395525,3,12,157.5,0,0,29.823,42,0,0,68.7,50
2016-07-25 19:20:00,61.9,61.9,61.9,67,50.8180391781664,3,11,247.5,0,0,29.828,34,0,0,68.5,51
2016-07-25 19:25:00,61.7,61.7,61.7,67,50.6276035905191,3,8,247.5,0,0,29.824,32,0,0,68.4,51
2016-07-25 19:30:00,61.6,61.6,61.6,68,50.9322669443507,2,6,225,0,0,29.828,32,0,0,68.2,52
2016-07-25 19:35:00,61.6,61.6,61.6,68,50.9322669443507,1,7,270,0,0,29.831,29,0,0,68.2,52
2016-07-25 19:40:00,61.6,61.6,61.6,69,51.3270131349394,2,9,247.5,0,0,29.83,28,0,0,68,52
2016-07-25 19:45:00,61.6,61.6,61.6,69,51.3270131349394,2,8,225,0,0,29.83,29,0,0,68,53
2016-07-25 19:50:00,61.6,61.6,61.6,69,51.3270131349394,2,9,292.5,0,0,29.829,25,0,0,67.9,53
2016-07-25 19:55:00,61.6,61.6,61.6,69,51.3270131349394,3,7,292.5,0,0,29.831,16,0,0,67.9,53
2016-07-25 20:00:00,61.5,61.5,61.5,69,51.2314535519469,1,6,292.5,0,0,29.829,11,0.002,0,67.7,54
2016-07-25 20:05:00,61.4,61.4,61.4,69,51.1358930307466,4,9,292.5,0,0,29.83,6,0,0,67.5,53
2016-07-25 20:10:00,61.3,61.3,61.3,69,51.0403315713249,4,10,225,0,0,29.832,3,0,0,67.4,54
2016-07-25 20:15:00,61.2,61.2,61.2,69,50.9447691736679,3,11,202.5,0,0,29.834,0,0,0,67.2,54
2016-07-25 20:20:00,61.1,61.1,61.1,69,50.8492058377617,2,7,202.5,0,0,29.835,0,0,0,67.2,54
2016-07-25 20:25:00,61,61,61,69,50.7536415635925,2,8,270,0,0,29.836,0,0,0,67,54
2016-07-25 20:30:00,60.9,60.9,60.9,70,51.0466600121727,1,6,247.5,0,0,29.836,0,0,0,67,54
2016-07-25 20:35:00,60.8,60.8,60.8,70,50.9509274734469,2,6,247.5,0,0,29.835,0,0,0,67,54
2016-07-25 20:40:00,60.8,60.8,60.8,70,50.9509274734469,1,4,247.5,0,0,29.837,0,0,0,66.9,55
2016-07-25 20:45:00,60.7,60.7,60.7,70,50.8551940304451,3,9,247.5,0,0,29.838,0,0,0,66.7,55
2016-07-25 20:50:00,60.5,60.5,60.5,70,50.6637244315621,1,7,247.5,0,0,29.837,0,0,0,66.6,55
2016-07-25 20:55:00,60.5,60.5,60.5,71,51.0468010478722,1,5,247.5,0,0,29.843,0,0,0,66.4,55
2016-07-25 21:00:00,60.4,60.4,60.4,71,50.9509005733684,2,7,180,0,0,29.844,0,0.001,0,66.4,55
2016-07-25 21:05:00,60.4,60.4,60.4,71,50.9509005733684,1,6,225,0,0,29.844,0,0,0,66.2,56
2016-07-25 21:10:00,60.4,60.4,60.4,72,51.329100972904,1,8,247.5,0,0,29.845,0,0,0,66.2,56
2016-07-25 21:15:00,60.3,60.3,60.3,72,51.2330372263096,2,9,202.5,0,0,29.846,0,0,0,66.1,57
2016-07-25 21:20:00,60.2,60.2,60.2,72,51.1369726425353,3,9,202.5,0,0,29.842,0,0,0,65.9,57
2016-07-25 21:25:00,60.1,60.1,60.1,72,51.04090722157,2,7,202.5,0,0,29.842,0,0,0,65.8,58
2016-07-25 21:30:00,59.9,59.9,59.9,72,50.8487738680228,1,6,202.5,0,0,29.847,0,0,0,65.6,58
2016-07-25 21:35:00,59.8,59.8,59.8,73,51.1253543024181,1,7,270,0,0,29.851,0,0,0,65.6,58
2016-07-25 21:40:00,59.6,59.6,59.6,73,50.9328952248291,0,2,0,0,0,29.851,0,0,0,65.6,58
2016-07-25 21:45:00,59.5,59.5,59.5,73,50.8366644798743,0,1,0,0,0,29.853,0,0,0,65.6,58
2016-07-25 21:50:00,59.4,59.4,59.4,74,51.1079867115296,0,4,0,0,0,29.851,0,0,0,65.6,58